Location: Broekland
(52.3610°N, 6.2005°E)
Time: 09:14:17
(UTC+00:00)

Meteor 2-15 Rocket - Pass Details

Date: 19 May 2025
Orbit: 938 x 956 km, 82.5° (Epoch: 23 June)

Event Time Altitude Azimuth Distance (km) Brightness Sun altitude
Rises 22:51:56 0° 348° (NNW) 3,639 9.3 -17.1°
Reaches altitude 10° 22:54:26 10° 347° (NNW) 2,687 8.1 -17.2°
Maximum altitude 23:00:35 79° 262° (W) 970 4.4 -17.3°
Enters shadow 23:04:00 28° 180° (S) 1,704 5.2 -17.4°
